,,,PA_Meas_PMT16A,,PR_Meas_QMR101_102,,RH_Meas_QMH101,,SR_Meas_QMS101,,TA_Meas_QMH101,,GenWind,,GenWind,
date,time,status,PA,status,PR,status,RH,status,SR,status,TA,status,DirAvg,status,SpdAvg,
2012-12-01, 00:00:04,VALID,1009.19,VALID,0,VALID,104,VALID,0,VALID,23.6727,VALID,35,VALID,0.886328,
2012-12-01, 00:01:04,VALID,1009.22,VALID,0,VALID,104,VALID,0,VALID,23.6745,VALID,40,VALID,0.889453,
2012-12-01, 00:02:04,VALID,1009.21,VALID,0,VALID,104,VALID,0,VALID,23.6532,VALID,37,VALID,1.33633,
2012-12-01, 00:03:04,VALID,1009.2,VALID,0,VALID,104,VALID,0,VALID,23.6338,VALID,53,VALID,0.974219,
2012-12-01, 00:04:04,VALID,1009.18,VALID,0,VALID,104,VALID,0,VALID,23.7135,VALID,50,VALID,0.707422,
2012-12-01, 00:05:04,VALID,1009.17,VALID,0,VALID,104,VALID,0,VALID,23.7135,VALID,36,VALID,0.786328,
2012-12-01, 00:06:04,VALID,1009.13,VALID,0,VALID,104,VALID,0,VALID,23.6745,VALID,43,VALID,0.811328,
2012-12-01, 00:07:04,VALID,1009.11,VALID,0,VALID,104,VALID,0,VALID,23.6338,VALID,55,VALID,0.532031,
2012-12-01, 00:08:04,VALID,1009.1,VALID,0,VALID,104,VALID,0,VALID,23.694,VALID,27,VALID,0.592969,
2012-12-01, 00:09:04,VALID,1009.07,VALID,0,VALID,104,VALID,0,VALID,23.7135,VALID,27,VALID,0.1375,
2012-12-01, 00:10:04,VALID,1009.06,VALID,0,VALID,104,VALID,0,VALID,23.694,VALID,28,VALID,0.0613281,
2012-12-01, 00:11:04,VALID,1009.03,VALID,0,VALID,104,VALID,0,VALID,23.6745,VALID,28,VALID,0.349609,
2012-12-01, 00:12:04,VALID,1009.01,VALID,0,VALID,104,VALID,0,VALID,23.7135,VALID,26,VALID,0.555469,
2012-12-01, 00:13:04,VALID,1009.03,VALID,0,VALID,104,VALID,0,VALID,23.6922,VALID,24,VALID,0.279687,
2012-12-01, 00:14:04,VALID,1009.01,VALID,0,VALID,104,VALID,0,VALID,23.694,VALID,27,VALID,0.571875,
2012-12-01, 00:15:04,VALID,1009,VALID,0,VALID,104,VALID,0,VALID,23.694,VALID,27,VALID,0.703516,
2012-12-01, 00:16:04,VALID,1008.98,VALID,0,VALID,104,VALID,0,VALID,23.733,VALID,27,VALID,0.282813,
2012-12-01, 00:17:04,VALID,1008.96,VALID,0,VALID,104,VALID,0,VALID,23.694,VALID,27,VALID,0.466016,
2012-12-01, 00:18:04,VALID,1008.96,VALID,0,VALID,104,VALID,0,VALID,23.7135,VALID,27,VALID,0.553125,
2012-12-01, 00:19:04,VALID,1008.92,VALID,0,VALID,104,VALID,0,VALID,23.694,VALID,28,VALID,0.535547,
2012-12-01, 00:20:04,VALID,1008.92,VALID,0,VALID,104,VALID,0,VALID,23.6532,VALID,28,VALID,0.586328,
2012-12-01, 00:21:04,VALID,1008.9,VALID,0,VALID,104,VALID,0,VALID,23.694,VALID,28,VALID,0.590234,
2012-12-01, 00:22:04,VALID,1008.89,VALID,0,VALID,104,VALID,0,VALID,23.7135,VALID,28,VALID,0.525,
2012-12-01, 00:23:04,VALID,1008.88,VALID,0,VALID,104,VALID,0,VALID,23.694,VALID,28,VALID,0.413672,
2012-12-01, 00:24:04,VALID,1008.85,VALID,0,VALID,104,VALID,0,VALID,23.6922,VALID,48,VALID,0.236328,
2012-12-01, 00:25:04,VALID,1008.87,VALID,0,VALID,104,VALID,0,VALID,23.7117,VALID,48,VALID,0.198828,
2012-12-01, 00:26:04,VALID,1008.85,VALID,0,VALID,104,VALID,0,VALID,23.694,VALID,48,VALID,0.0117188,
2012-12-01, 00:27:04,VALID,1008.88,VALID,0,VALID,104,VALID,0,VALID,23.7135,VALID,48,VALID,0,
2012-12-01, 00:28:04,VALID,1008.83,VALID,0,VALID,104,VALID,0,VALID,23.733,VALID,48,VALID,0,
2012-12-01, 00:29:04,VALID,1008.87,VALID,0.5,VALID,104,VALID,0,VALID,23.733,VALID,47,VALID,0,
2012-12-01, 00:30:04,VALID,1008.81,VALID,0,VALID,104,VALID,0,VALID,23.733,VALID,48,VALID,0,
2012-12-01, 00:31:04,VALID,1008.8,VALID,0,VALID,104,VALID,0,VALID,23.7525,VALID,48,VALID,0,
2012-12-01, 00:32:04,VALID,1008.8,VALID,0,VALID,104,VALID,0,VALID,23.7117,VALID,47,VALID,0.0652344,
2012-12-01, 00:33:04,VALID,1008.81,VALID,0,VALID,104,VALID,0,VALID,23.733,VALID,47,VALID,0.160156,
2012-12-01, 00:34:04,VALID,1008.81,VALID,0,VALID,104,VALID,0,VALID,23.694,VALID,48,VALID,0.272266,
2012-12-01, 00:35:04,VALID,1008.78,VALID,0,VALID,104,VALID,0,VALID,23.7525,VALID,48,VALID,0.149609,
2012-12-01, 00:36:04,VALID,1008.78,VALID,0,VALID,104,VALID,0,VALID,23.772,VALID,48,VALID,0.141797,
2012-12-01, 00:37:04,VALID,1008.79,VALID,0,VALID,104,VALID,0,VALID,23.7525,VALID,47,VALID,0.123828,
2012-12-01, 00:38:04,VALID,1008.77,VALID,0,VALID,104,VALID,0,VALID,23.7525,VALID,48,VALID,0,
2012-12-01, 00:39:04,VALID,1008.73,VALID,0,VALID,104,VALID,0,VALID,23.772,VALID,48,VALID,0,
2012-12-01, 00:40:04,VALID,1008.71,VALID,0,VALID,104,VALID,0,VALID,23.772,VALID,48,VALID,0,
2012-12-01, 00:41:04,VALID,1008.69,VALID,0,VALID,104,VALID,0,VALID,23.7932,VALID,48,VALID,0,
2012-12-01, 00:42:04,VALID,1008.69,VALID,0,VALID,104,VALID,0,VALID,23.7525,VALID,48,VALID,0,
2012-12-01, 00:43:04,VALID,1008.68,VALID,0,VALID,104,VALID,0,VALID,23.733,VALID,48,VALID,0.159766,
2012-12-01, 00:44:04,VALID,1008.69,VALID,0,VALID,104,VALID,0,VALID,23.772,VALID,48,VALID,0.3,
2012-12-01, 00:45:04,VALID,1008.7,VALID,0,VALID,104,VALID,0,VALID,23.7525,VALID,48,VALID,0.274609,
2012-12-01, 00:46:04,VALID,1008.69,VALID,0,VALID,104,VALID,0,VALID,23.772,VALID,48,VALID,0.207813,
2012-12-01, 00:47:04,VALID,1008.66,VALID,0,VALID,104,VALID,0,VALID,23.7525,VALID,48,VALID,0.349609,
2012-12-01, 00:48:04,VALID,1008.67,VALID,0,VALID,104,VALID,0,VALID,23.772,VALID,48,VALID,0.201953,
2012-12-01, 00:49:04,VALID,1008.66,VALID,0,VALID,104,VALID,0,VALID,23.7507,VALID,48,VALID,0,
2012-12-01, 00:50:04,VALID,1008.63,VALID,0,VALID,104,VALID,0,VALID,23.7525,VALID,48,VALID,0,
2012-12-01, 00:51:04,VALID,1008.66,VALID,0,VALID,104,VALID,0,VALID,23.7914,VALID,48,VALID,0,
2012-12-01, 00:52:04,VALID,1008.62,VALID,0,VALID,104,VALID,0,VALID,23.8109,VALID,48,VALID,0.29375,
2012-12-01, 00:53:04,VALID,1008.6,VALID,0,VALID,104,VALID,0,VALID,23.7896,VALID,48,VALID,0.187891,
2012-12-01, 00:54:04,VALID,1008.59,VALID,0,VALID,104,VALID,0,VALID,23.772,VALID,48,VALID,0.194922,
2012-12-01, 00:55:04,VALID,1008.57,VALID,0,VALID,104,VALID,0,VALID,23.772,VALID,47,VALID,0.222266,
2012-12-01, 00:56:04,VALID,1008.56,VALID,0,VALID,104,VALID,0,VALID,23.7914,VALID,48,VALID,0,
2012-12-01, 00:57:04,VALID,1008.55,VALID,0,VALID,104,VALID,0,VALID,23.8109,VALID,48,VALID,0,
2012-12-01, 00:58:04,VALID,1008.52,VALID,0,VALID,104,VALID,0,VALID,23.772,VALID,48,VALID,0,
2012-12-01, 00:59:04,VALID,1008.49,VALID,0,VALID,104,VALID,0,VALID,23.7896,VALID,48,VALID,0,
2012-12-01, 01:00:04,VALID,1008.46,VALID,0,VALID,104,VALID,0,VALID,23.7914,VALID,48,VALID,0,
2012-12-01, 01:01:04,VALID,1008.45,VALID,0,VALID,104,VALID,0,VALID,23.8091,VALID,48,VALID,0,
2012-12-01, 01:02:04,VALID,1008.44,VALID,0,VALID,104,VALID,0.112112,VALID,23.8304,VALID,47,VALID,0,
2012-12-01, 01:03:04,VALID,1008.43,VALID,0,VALID,104,VALID,0,VALID,23.7896,VALID,48,VALID,0,
2012-12-01, 01:04:04,VALID,1008.4,VALID,0,VALID,104,VALID,0,VALID,23.772,VALID,47,VALID,0,
2012-12-01, 01:05:04,VALID,1008.4,VALID,0,VALID,104,VALID,0,VALID,23.8109,VALID,48,VALID,0,
2012-12-01, 01:06:04,VALID,1008.36,VALID,0,VALID,104,VALID,0,VALID,23.8109,VALID,47,VALID,0,
2012-12-01, 01:07:04,VALID,1008.37,VALID,0,VALID,104,VALID,0,VALID,23.8109,VALID,48,VALID,0,
2012-12-01, 01:08:04,VALID,1008.37,VALID,0,VALID,104,VALID,0,VALID,23.8304,VALID,48,VALID,0,
2012-12-01, 01:09:04,VALID,1008.36,VALID,0,VALID,104,VALID,0,VALID,23.8109,VALID,48,VALID,0,
2012-12-01, 01:10:04,VALID,1008.36,VALID,0,VALID,104,VALID,0,VALID,23.8499,VALID,48,VALID,0,
2012-12-01, 01:11:04,VALID,1008.37,VALID,0,VALID,104,VALID,0,VALID,23.8499,VALID,47,VALID,0,
2012-12-01, 01:12:04,VALID,1008.34,VALID,0,VALID,104,VALID,0,VALID,23.8694,VALID,48,VALID,0,
2012-12-01, 01:13:04,VALID,1008.37,VALID,0,VALID,104,VALID,0,VALID,23.8304,VALID,48,VALID,0,
2012-12-01, 01:14:04,VALID,1008.38,VALID,0,VALID,104,VALID,0,VALID,23.8304,VALID,48,VALID,0,
2012-12-01, 01:15:04,VALID,1008.41,VALID,0,VALID,104,VALID,0,VALID,23.9084,VALID,48,VALID,0,
2012-12-01, 01:16:04,VALID,1008.4,VALID,0,VALID,104,VALID,0,VALID,23.9278,VALID,60,VALID,0,
2012-12-01, 01:17:04,VALID,1008.45,VALID,0,VALID,104,VALID,0,VALID,23.8499,VALID,60,VALID,0,
2012-12-01, 01:18:04,VALID,1008.44,VALID,0,VALID,104,VALID,0.112112,VALID,23.8694,VALID,60,VALID,0,
2012-12-01, 01:19:04,VALID,1008.45,VALID,0,VALID,104,VALID,0,VALID,23.8889,VALID,60,VALID,0,
2012-12-01, 01:20:04,VALID,1008.49,VALID,0,VALID,104,VALID,0,VALID,23.8694,VALID,60,VALID,0,
2012-12-01, 01:21:04,VALID,1008.46,VALID,0,VALID,104,VALID,0,VALID,23.9084,VALID,60,VALID,0,
2012-12-01, 01:22:04,VALID,1008.48,VALID,0,VALID,104,VALID,0,VALID,23.9084,VALID,60,VALID,0,
2012-12-01, 01:23:04,VALID,1008.49,VALID,0,VALID,104,VALID,0,VALID,23.9473,VALID,60,VALID,0,
2012-12-01, 01:24:04,VALID,1008.5,VALID,0,VALID,104,VALID,0,VALID,23.9668,VALID,60,VALID,0,
2012-12-01, 01:25:04,VALID,1008.48,VALID,0,VALID,104,VALID,0.112112,VALID,23.9668,VALID,60,VALID,0,
2012-12-01, 01:26:04,VALID,1008.53,VALID,0,VALID,104,VALID,0,VALID,23.9278,VALID,60,VALID,0,
2012-12-01, 01:27:04,VALID,1008.53,VALID,0,VALID,104,VALID,0,VALID,23.9863,VALID,60,VALID,0,
2012-12-01, 01:28:04,VALID,1008.53,VALID,0,VALID,104,VALID,0,VALID,23.9473,VALID,60,VALID,0,
2012-12-01, 01:29:04,VALID,1008.52,VALID,0,VALID,104,VALID,0,VALID,23.9668,VALID,60,VALID,0,
2012-12-01, 01:30:04,VALID,1008.46,VALID,0,VALID,104,VALID,0,VALID,24.0058,VALID,60,VALID,0,
2012-12-01, 01:31:04,VALID,1008.45,VALID,0,VALID,104,VALID,0,VALID,23.9863,VALID,60,VALID,0,
2012-12-01, 01:32:04,VALID,1008.43,VALID,0,VALID,104,VALID,0,VALID,23.9863,VALID,60,VALID,0,
2012-12-01, 01:33:04,VALID,1008.42,VALID,0,VALID,104,VALID,0,VALID,23.9668,VALID,60,VALID,0,
2012-12-01, 01:34:04,VALID,1008.42,VALID,0,VALID,104,VALID,0,VALID,23.9863,VALID,60,VALID,0,
2012-12-01, 01:35:04,VALID,1008.41,VALID,0,VALID,104,VALID,0,VALID,23.9881,VALID,60,VALID,0,
2012-12-01, 01:36:04,VALID,1008.41,VALID,0,VALID,104,VALID,0,VALID,23.9668,VALID,60,VALID,0,
2012-12-01, 01:37:04,VALID,1008.39,VALID,0,VALID,104,VALID,0,VALID,23.9845,VALID,60,VALID,0,
2012-12-01, 01:38:04,VALID,1008.41,VALID,0,VALID,104,VALID,0,VALID,24.0253,VALID,60,VALID,0,
2012-12-01, 01:39:04,VALID,1008.4,VALID,0,VALID,104,VALID,0,VALID,24.0058,VALID,60,VALID,0,
2012-12-01, 01:40:04,VALID,1008.42,VALID,0,VALID,104,VALID,0,VALID,24.0253,VALID,60,VALID,0,
2012-12-01, 01:41:04,VALID,1008.42,VALID,0,VALID,104,VALID,0,VALID,24.0448,VALID,60,VALID,0,
2012-12-01, 01:42:04,VALID,1008.41,VALID,0,VALID,104,VALID,0,VALID,24.0253,VALID,60,VALID,0,
2012-12-01, 01:43:04,VALID,1008.38,VALID,0,VALID,104,VALID,0,VALID,24.0448,VALID,60,VALID,0,
2012-12-01, 01:44:04,VALID,1008.36,VALID,0,VALID,104,VALID,0,VALID,24.0643,VALID,60,VALID,0,
2012-12-01, 01:45:04,VALID,1008.36,VALID,0,VALID,104,VALID,0,VALID,24.0643,VALID,60,VALID,0,
2012-12-01, 01:46:04,VALID,1008.39,VALID,0,VALID,104,VALID,0,VALID,24.0643,VALID,60,VALID,0,
2012-12-01, 01:47:04,VALID,1008.4,VALID,0,VALID,104,VALID,0,VALID,24.0448,VALID,47,VALID,0,
2012-12-01, 01:48:04,VALID,1008.4,VALID,0,VALID,104,VALID,0,VALID,24.0253,VALID,47,VALID,0,
2012-12-01, 01:49:04,VALID,1008.39,VALID,0,VALID,104,VALID,0,VALID,24.0448,VALID,47,VALID,0,
2012-12-01, 01:50:04,VALID,1008.41,VALID,0,VALID,104,VALID,0,VALID,24.0058,VALID,47,VALID,0,
2012-12-01, 01:51:04,VALID,1008.4,VALID,0,VALID,104,VALID,0.112112,VALID,24.0253,VALID,47,VALID,0,
2012-12-01, 01:52:04,VALID,1008.41,VALID,0,VALID,104,VALID,0,VALID,24.0058,VALID,47,VALID,0,
2012-12-01, 01:53:04,VALID,1008.4,VALID,0,VALID,104,VALID,0,VALID,24.0448,VALID,47,VALID,0,
2012-12-01, 01:54:04,VALID,1008.42,VALID,0,VALID,104,VALID,0,VALID,24.0448,VALID,47,VALID,0,
2012-12-01, 01:55:04,VALID,1008.42,VALID,0,VALID,104,VALID,0,VALID,24.0448,VALID,47,VALID,0,
2012-12-01, 01:56:04,VALID,1008.44,VALID,0,VALID,104,VALID,0,VALID,24.0253,VALID,47,VALID,0,
2012-12-01, 01:57:04,VALID,1008.44,VALID,0,VALID,104,VALID,0,VALID,24.0058,VALID,47,VALID,0,
2012-12-01, 01:58:04,VALID,1008.44,VALID,0,VALID,104,VALID,0,VALID,24.0448,VALID,47,VALID,0,
2012-12-01, 01:59:04,VALID,1008.45,VALID,0,VALID,104,VALID,0,VALID,24.0643,VALID,47,VALID,0,
2012-12-01, 02:00:04,VALID,1008.43,VALID,0,VALID,104,VALID,0,VALID,24.0253,VALID,47,VALID,0,
2012-12-01, 02:01:04,VALID,1008.4,VALID,0,VALID,104,VALID,0,VALID,24.0448,VALID,47,VALID,0,
2012-12-01, 02:02:04,VALID,1008.41,VALID,0,VALID,104,VALID,0,VALID,24.0058,VALID,47,VALID,0,
2012-12-01, 02:03:04,VALID,1008.38,VALID,0,VALID,104,VALID,0,VALID,24.0448,VALID,47,VALID,0,
2012-12-01, 02:04:04,VALID,1008.4,VALID,0,VALID,104,VALID,0,VALID,24.0643,VALID,47,VALID,0,
2012-12-01, 02:05:04,VALID,1008.38,VALID,0,VALID,104,VALID,0,VALID,24.0624,VALID,47,VALID,0,
2012-12-01, 02:06:04,VALID,1008.39,VALID,0,VALID,104,VALID,0,VALID,24.0624,VALID,294,VALID,0.684766,
2012-12-01, 02:07:04,VALID,1008.38,VALID,0,VALID,104,VALID,0,VALID,24.0235,VALID,294,VALID,0.506641,
2012-12-01, 02:08:04,VALID,1008.35,VALID,0,VALID,104,VALID,0,VALID,24.0448,VALID,303,VALID,0.552734,
2012-12-01, 02:09:04,VALID,1008.36,VALID,0,VALID,104,VALID,0,VALID,24.0624,VALID,303,VALID,0.182812,
2012-12-01, 02:10:04,VALID,1008.34,VALID,0,VALID,104,VALID,0,VALID,24.1032,VALID,303,VALID,0.350781,
2012-12-01, 02:11:04,VALID,1008.3,VALID,0,VALID,104,VALID,0,VALID,24.0837,VALID,303,VALID,0.510156,
2012-12-01, 02:12:04,VALID,1008.31,VALID,0,VALID,104,VALID,0,VALID,24.1032,VALID,303,VALID,0.473437,
2012-12-01, 02:13:04,VALID,1008.28,VALID,0,VALID,104,VALID,0,VALID,24.1227,VALID,303,VALID,0.155078,
2012-12-01, 02:14:04,VALID,1008.25,VALID,0,VALID,104,VALID,0,VALID,24.1032,VALID,303,VALID,0.39375,
2012-12-01, 02:15:04,VALID,1008.22,VALID,0,VALID,104,VALID,0,VALID,24.1032,VALID,303,VALID,0.439453,
2012-12-01, 02:16:04,VALID,1008.25,VALID,0,VALID,104,VALID,0,VALID,24.1032,VALID,303,VALID,0.167969,
2012-12-01, 02:17:04,VALID,1008.21,VALID,0,VALID,104,VALID,0,VALID,24.1032,VALID,303,VALID,0.296484,
2012-12-01, 02:18:04,VALID,1008.19,VALID,0,VALID,104,VALID,0,VALID,24.1227,VALID,304,VALID,0.259766,
2012-12-01, 02:19:04,VALID,1008.17,VALID,0,VALID,104,VALID,0,VALID,24.1422,VALID,304,VALID,0.375391,
2012-12-01, 02:20:04,VALID,1008.14,VALID,0,VALID,104,VALID,0,VALID,24.1227,VALID,303,VALID,0.126953,
2012-12-01, 02:21:04,VALID,1008.11,VALID,0,VALID,104,VALID,0,VALID,24.1422,VALID,302,VALID,0.204297,
2012-12-01, 02:22:04,VALID,1008.08,VALID,0,VALID,104,VALID,0,VALID,24.1617,VALID,302,VALID,0.433984,
2012-12-01, 02:23:04,VALID,1008.06,VALID,0,VALID,104,VALID,0,VALID,24.1617,VALID,311,VALID,0.364453,
2012-12-01, 02:24:04,VALID,1008.02,VALID,0,VALID,104,VALID,0,VALID,24.1617,VALID,311,VALID,0.24375,
2012-12-01, 02:25:04,VALID,1008.04,VALID,0,VALID,104,VALID,0,VALID,24.1422,VALID,311,VALID,0.251953,
2012-12-01, 02:26:04,VALID,1008.01,VALID,0,VALID,104,VALID,0,VALID,24.1422,VALID,311,VALID,0.0644531,
2012-12-01, 02:27:04,VALID,1008.03,VALID,0,VALID,104,VALID,0,VALID,24.1617,VALID,311,VALID,0.178906,
2012-12-01, 02:28:04,VALID,1008.03,VALID,0,VALID,104,VALID,0,VALID,24.1227,VALID,311,VALID,0.302344,
2012-12-01, 02:29:04,VALID,1008,VALID,0,VALID,104,VALID,0,VALID,24.1617,VALID,311,VALID,0.543359,
2012-12-01, 02:30:04,VALID,1007.96,VALID,0,VALID,104,VALID,0,VALID,24.1032,VALID,311,VALID,0.534375,
2012-12-01, 02:31:04,VALID,1007.97,VALID,0,VALID,104,VALID,0,VALID,24.0837,VALID,311,VALID,0.619922,
2012-12-01, 02:32:04,VALID,1007.92,VALID,0,VALID,104,VALID,0,VALID,24.0448,VALID,312,VALID,0.434375,
2012-12-01, 02:33:04,VALID,1007.94,VALID,0,VALID,104,VALID,0,VALID,24.0643,VALID,312,VALID,0.45625,
2012-12-01, 02:34:04,VALID,1007.91,VALID,0,VALID,104,VALID,0,VALID,24.0837,VALID,312,VALID,0.3875,
2012-12-01, 02:35:04,VALID,1007.92,VALID,0,VALID,104,VALID,0,VALID,24.0643,VALID,312,VALID,0.0410156,
2012-12-01, 02:36:04,VALID,1007.88,VALID,0,VALID,104,VALID,0,VALID,24.0643,VALID,312,VALID,0,
2012-12-01, 02:37:04,VALID,1007.86,VALID,0,VALID,104,VALID,0,VALID,24.1032,VALID,312,VALID,0.0425781,
2012-12-01, 02:38:04,VALID,1007.85,VALID,0,VALID,104,VALID,0,VALID,24.0448,VALID,309,VALID,0.366797,
2012-12-01, 02:39:04,VALID,1007.84,VALID,0,VALID,104,VALID,0,VALID,24.0253,VALID,309,VALID,0.363672,
2012-12-01, 02:40:04,VALID,1007.83,VALID,0,VALID,104,VALID,0,VALID,24.0448,VALID,308,VALID,0.442578,
2012-12-01, 02:41:04,VALID,1007.81,VALID,0,VALID,104,VALID,0,VALID,24.0448,VALID,308,VALID,0.456641,
2012-12-01, 02:42:04,VALID,1007.78,VALID,0,VALID,104,VALID,0,VALID,24.0253,VALID,322,VALID,0.745313,
2012-12-01, 02:43:04,VALID,1007.81,VALID,0,VALID,104,VALID,0,VALID,24.0253,VALID,325,VALID,0.319141,
2012-12-01, 02:44:04,VALID,1007.8,VALID,0,VALID,104,VALID,0,VALID,24.0253,VALID,326,VALID,0.595312,
2012-12-01, 02:45:04,VALID,1007.8,VALID,0,VALID,104,VALID,0,VALID,24.0058,VALID,326,VALID,0.149219,
2012-12-01, 02:46:04,VALID,1007.83,VALID,0,VALID,104,VALID,0,VALID,24.0253,VALID,325,VALID,0.0234375,
2012-12-01, 02:47:04,VALID,1007.82,VALID,0,VALID,104,VALID,0,VALID,24.0058,VALID,325,VALID,0,
2012-12-01, 02:48:04,VALID,1007.83,VALID,0,VALID,104,VALID,0,VALID,24.0253,VALID,326,VALID,0.282813,
2012-12-01, 02:49:04,VALID,1007.83,VALID,0,VALID,104,VALID,0,VALID,24.0058,VALID,359,VALID,0.546094,
2012-12-01, 02:50:04,VALID,1007.83,VALID,0,VALID,104,VALID,0,VALID,23.9863,VALID,358,VALID,0.342578,
2012-12-01, 02:51:04,VALID,1007.87,VALID,0,VALID,104,VALID,0,VALID,24.0058,VALID,358,VALID,0,
2012-12-01, 02:52:04,VALID,1007.86,VALID,0,VALID,104,VALID,0,VALID,23.9863,VALID,11,VALID,0.364062,
2012-12-01, 02:53:04,VALID,1007.84,VALID,0,VALID,104,VALID,0,VALID,24.0058,VALID,13,VALID,0.135937,
2012-12-01, 02:54:04,VALID,1007.83,VALID,0,VALID,104,VALID,0,VALID,23.9863,VALID,13,VALID,0.422266,
2012-12-01, 02:55:04,VALID,1007.84,VALID,0,VALID,104,VALID,0,VALID,23.9668,VALID,13,VALID,0.233594,
2012-12-01, 02:56:04,VALID,1007.85,VALID,0,VALID,104,VALID,0,VALID,23.9863,VALID,13,VALID,0.0714844,
2012-12-01, 02:57:04,VALID,1007.85,VALID,0,VALID,104,VALID,0,VALID,23.9863,VALID,13,VALID,0.128906,
2012-12-01, 02:58:04,VALID,1007.81,VALID,0,VALID,104,VALID,0,VALID,23.965,VALID,5,VALID,0.865625,
2012-12-01, 02:59:04,VALID,1007.83,VALID,0,VALID,104,VALID,0,VALID,23.9863,VALID,346,VALID,0.391797,
2012-12-01, 03:00:04,VALID,1007.8,VALID,0,VALID,104,VALID,0,VALID,23.9863,VALID,346,VALID,0.505469,
2012-12-01, 03:01:04,VALID,1007.81,VALID,0,VALID,104,VALID,0,VALID,23.9455,VALID,346,VALID,0.471094,
2012-12-01, 03:02:04,VALID,1007.78,VALID,0,VALID,104,VALID,0,VALID,23.9863,VALID,346,VALID,0.0429688,
2012-12-01, 03:03:04,VALID,1007.79,VALID,0,VALID,104,VALID,0,VALID,23.9863,VALID,346,VALID,0,
2012-12-01, 03:04:04,VALID,1007.79,VALID,0,VALID,104,VALID,0,VALID,23.9668,VALID,346,VALID,0.401172,
2012-12-01, 03:05:04,VALID,1007.81,VALID,0,VALID,104,VALID,0,VALID,23.965,VALID,346,VALID,0.323438,
2012-12-01, 03:06:04,VALID,1007.79,VALID,0,VALID,104,VALID,0,VALID,23.9863,VALID,346,VALID,0.174219,
2012-12-01, 03:07:04,VALID,1007.78,VALID,0,VALID,104,VALID,0,VALID,24.0058,VALID,346,VALID,0.271875,
2012-12-01, 03:08:04,VALID,1007.79,VALID,0,VALID,104,VALID,0,VALID,23.9863,VALID,346,VALID,0.294141,
2012-12-01, 03:09:04,VALID,1007.8,VALID,0,VALID,104,VALID,0,VALID,24.0058,VALID,346,VALID,0.129688,
2012-12-01, 03:10:04,VALID,1007.8,VALID,0,VALID,104,VALID,0,VALID,24.0058,VALID,345,VALID,0.355469,
2012-12-01, 03:11:04,VALID,1007.8,VALID,0,VALID,104,VALID,0,VALID,24.004,VALID,345,VALID,0.343359,
2012-12-01, 03:12:04,VALID,1007.78,VALID,0,VALID,104,VALID,0,VALID,24.0253,VALID,345,VALID,0.00273437,
2012-12-01, 03:13:04,VALID,1007.77,VALID,0,VALID,104,VALID,0,VALID,24.0058,VALID,345,VALID,0.250391,
2012-12-01, 03:14:04,VALID,1007.75,VALID,0,VALID,104,VALID,0,VALID,24.0058,VALID,345,VALID,0.0078125,
2012-12-01, 03:15:04,VALID,1007.72,VALID,0,VALID,104,VALID,0,VALID,24.0253,VALID,345,VALID,0,
2012-12-01, 03:16:04,VALID,1007.74,VALID,0,VALID,104,VALID,0,VALID,24.0253,VALID,345,VALID,0.0835937,
2012-12-01, 03:17:04,VALID,1007.75,VALID,0,VALID,104,VALID,0,VALID,24.0253,VALID,345,VALID,0.375781,
2012-12-01, 03:18:04,VALID,1007.75,VALID,0,VALID,104,VALID,0,VALID,24.0058,VALID,345,VALID,0.00546875,
2012-12-01, 03:19:04,VALID,1007.73,VALID,0,VALID,104,VALID,0,VALID,24.0466,VALID,345,VALID,0,
2012-12-01, 03:20:04,VALID,1007.75,VALID,0,VALID,104,VALID,0,VALID,24.0058,VALID,345,VALID,0.00078125,
2012-12-01, 03:21:04,VALID,1007.77,VALID,0,VALID,104,VALID,0,VALID,24.0058,VALID,345,VALID,0.245312,
2012-12-01, 03:22:04,VALID,1007.77,VALID,0,VALID,104,VALID,0,VALID,23.9668,VALID,345,VALID,0.315234,
2012-12-01, 03:23:04,VALID,1007.82,VALID,0,VALID,104,VALID,0,VALID,23.9668,VALID,345,VALID,0.153125,
2012-12-01, 03:24:04,VALID,1007.82,VALID,0,VALID,104,VALID,0,VALID,24.0058,VALID,345,VALID,0.389844,
2012-12-01, 03:25:04,VALID,1007.85,VALID,0,VALID,104,VALID,0,VALID,24.0058,VALID,345,VALID,0.249219,
2012-12-01, 03:26:04,VALID,1007.85,VALID,0,VALID,104,VALID,0,VALID,24.0058,VALID,212,VALID,0.765234,
2012-12-01, 03:27:04,VALID,1007.91,VALID,0,VALID,104,VALID,0,VALID,24.0253,VALID,208,VALID,0.124219,
2012-12-01, 03:28:04,VALID,1007.94,VALID,0,VALID,104,VALID,0,VALID,24.0448,VALID,206,VALID,0.616797,
2012-12-01, 03:29:04,VALID,1007.94,VALID,0,VALID,104,VALID,0,VALID,24.0253,VALID,206,VALID,0.636719,
2012-12-01, 03:30:04,VALID,1007.96,VALID,0,VALID,104,VALID,0,VALID,24.0253,VALID,210,VALID,0.933203,
2012-12-01, 03:31:04,VALID,1007.98,VALID,0,VALID,104,VALID,0,VALID,24.0253,VALID,218,VALID,0.59375,
2012-12-01, 03:32:04,VALID,1008.01,VALID,0,VALID,104,VALID,0,VALID,24.0253,VALID,217,VALID,0.631641,
2012-12-01, 03:33:04,VALID,1008.05,VALID,0,VALID,104,VALID,0,VALID,24.0643,VALID,204,VALID,0.778516,
2012-12-01, 03:34:04,VALID,1008.04,VALID,0,VALID,104,VALID,0,VALID,24.0819,VALID,206,VALID,0.710156,
2012-12-01, 03:35:04,VALID,1008.09,VALID,0,VALID,104,VALID,0,VALID,24.0837,VALID,206,VALID,0.753125,
2012-12-01, 03:36:04,VALID,1008.08,VALID,0,VALID,104,VALID,0,VALID,24.0837,VALID,206,VALID,0.365625,
2012-12-01, 03:37:04,VALID,1008.06,VALID,0,VALID,104,VALID,0,VALID,24.0837,VALID,206,VALID,0.434375,
2012-12-01, 03:38:04,VALID,1008.08,VALID,0,VALID,104,VALID,0,VALID,24.0643,VALID,206,VALID,0.78125,
2012-12-01, 03:39:04,VALID,1008.09,VALID,0,VALID,104,VALID,0,VALID,24.0429,VALID,200,VALID,0.483203,
2012-12-01, 03:40:04,VALID,1008.1,VALID,0,VALID,104,VALID,0,VALID,24.0643,VALID,205,VALID,0.611719,
2012-12-01, 03:41:04,VALID,1008.11,VALID,0,VALID,104,VALID,0,VALID,24.0819,VALID,215,VALID,0.245312,
2012-12-01, 03:42:04,VALID,1008.09,VALID,0,VALID,104,VALID,0,VALID,24.1032,VALID,218,VALID,0.414453,
2012-12-01, 03:43:04,VALID,1008.09,VALID,0,VALID,104,VALID,0,VALID,24.0837,VALID,249,VALID,0.332422,
2012-12-01, 03:44:04,VALID,1008.1,VALID,0,VALID,104,VALID,0,VALID,24.1032,VALID,257,VALID,0.337109,
2012-12-01, 03:45:04,VALID,1008.1,VALID,0,VALID,104,VALID,0,VALID,24.0837,VALID,269,VALID,0.514844,
2012-12-01, 03:46:04,VALID,1008.12,VALID,0,VALID,104,VALID,0,VALID,24.1032,VALID,312,VALID,0.333594,
2012-12-01, 03:47:04,VALID,1008.13,VALID,0,VALID,104,VALID,0,VALID,24.1032,VALID,312,VALID,0.16875,
2012-12-01, 03:48:04,VALID,1008.14,VALID,0,VALID,104,VALID,0,VALID,24.0837,VALID,313,VALID,0.738672,
2012-12-01, 03:49:04,VALID,1008.15,VALID,0,VALID,104,VALID,0,VALID,24.1032,VALID,314,VALID,0.104297,
2012-12-01, 03:50:04,VALID,1008.17,VALID,0,VALID,104,VALID,0,VALID,24.1014,VALID,314,VALID,0.196484,
2012-12-01, 03:51:04,VALID,1008.2,VALID,0,VALID,104,VALID,0,VALID,24.1032,VALID,314,VALID,0.0671875,
2012-12-01, 03:52:04,VALID,1008.2,VALID,0,VALID,104,VALID,0,VALID,24.1032,VALID,314,VALID,0,
2012-12-01, 03:53:04,VALID,1008.23,VALID,0,VALID,104,VALID,0,VALID,24.1227,VALID,314,VALID,0.0308594,
2012-12-01, 03:54:04,VALID,1008.24,VALID,0,VALID,104,VALID,0,VALID,24.1422,VALID,313,VALID,0.341016,
2012-12-01, 03:55:04,VALID,1008.28,VALID,0,VALID,104,VALID,0,VALID,24.1422,VALID,313,VALID,0.351172,
2012-12-01, 03:56:04,VALID,1008.27,VALID,0,VALID,104,VALID,0,VALID,24.1422,VALID,220,VALID,0.700781,
2012-12-01, 03:57:04,VALID,1008.29,VALID,0,VALID,104,VALID,0,VALID,24.1617,VALID,220,VALID,0.471094,
2012-12-01, 03:58:04,VALID,1008.32,VALID,0,VALID,104,VALID,0,VALID,24.2007,VALID,219,VALID,0.472266,
2012-12-01, 03:59:04,VALID,1008.32,VALID,0,VALID,104,VALID,0,VALID,24.1812,VALID,220,VALID,0.387109,
2012-12-01, 04:00:04,VALID,1008.33,VALID,0,VALID,104,VALID,0,VALID,24.2007,VALID,220,VALID,0.289844,